Location: Clatteringshaws Loch
(55.0508°N, 4.2860°W)
Time: 22:18:19
(UTC+01:00)

Amateur Radio Satellites - All Passes

Search period start: 01 April 2015 21:48
Search period end: 02 April 2015 21:48
Location: Clatteringshaws Loch, 55.0508°N, 4.2860°W

Satellite Date Start Highest point End Downlink Frequencies (MHz)
Time Altitude Azimuth
CINEMA 3 01 Apr 21:52:30 21:56:38 66° 258° (WSW) 22:00:49 145.822/145.860
HUMSAT D 01 Apr 21:53:54 21:57:35 33° 64° (ENE) 22:01:21 437.325/437.525
CUBESAT XI-V 01 Apr 21:54:14 21:57:20 18° 306° (NW) 22:00:19 437.345
CUSAT 1 01 Apr 21:56:20 21:58:53 49° 288° (WNW) 22:01:34 437.405
SEEDS 01 Apr 21:56:21 22:00:16 35° 265° (W) 22:04:12 437.485
YUBILEINY 01 Apr 22:00:27 22:05:37 17° 33° (NNE) 22:11:02 435.215
50 SAT 01 Apr 22:00:39 22:03:58 27° 62° (ENE) 22:07:21 437.505
UKube-1 01 Apr 22:05:54 22:10:11 60° 68° (ENE) 22:14:29 .
PCSat 01 Apr 22:07:26 22:12:45 51° 37° (NE) 22:18:04 145.827
GONETS M04 01 Apr 22:09:10 22:16:59 34° 305° (NW) 22:24:47
COMPASS 1 01 Apr 22:13:47 22:17:29 29° 267° (W) 22:21:12 437.405
DX 1 01 Apr 22:20:42 22:25:04 83° 75° (ENE) 22:29:28 434.975-435.025
STRAND 1 01 Apr 22:26:07 22:29:56 21° 307° (NW) 22:33:39 437.568
ESTCUBE 1 01 Apr 22:26:23 22:30:21 30° 61° (ENE) 22:34:20 437.505/2401.250
SO-50 01 Apr 22:26:38 22:30:54 30° 348° (NNW) 22:35:14 436.795
ANTELSAT 01 Apr 22:28:58 22:30:15 11° 81° (E) 22:31:48 437.575/2403.000
ISS 01 Apr 22:29:14 22:30:16 11° 144° (SE) 22:31:23 145.825
Oscar 11 01 Apr 22:34:36 22:38:41 39° 263° (W) 22:42:47 145.826/435.025
DELFI C3 01 Apr 22:36:46 22:40:41 43° 262° (W) 22:44:38 145.870
TISAT 1 01 Apr 22:39:55 22:41:27 12° 50° (NE) 22:43:07 437.305
DOVE 4 01 Apr 22:40:50 22:43:31 16° 273° (W) 22:46:02 437.250
FUNcube-1 01 Apr 22:52:06 22:56:06 45° 261° (W) 23:00:11 145.935
SPROUT 01 Apr 23:01:27 23:04:26 19° 57° (ENE) 23:07:32 437.525
CUBEBUG 1 01 Apr 23:04:35 23:08:51 53° 68° (ENE) 23:13:09 437.445
UWE-3 01 Apr 23:06:14 23:09:54 29° 267° (W) 23:13:35 435.000/436.395/437.385
ZACube-1 01 Apr 23:06:41 23:10:29 33° 265° (W) 23:14:20 437.345
DANDE 01 Apr 23:09:31 23:10:24 11° 302° (WNW) 23:11:13 436.750
RS-15 01 Apr 23:09:58 23:20:46 55° 347° (NNW) 23:32:00 29.354- 29.394
VELOX 1 01 Apr 23:14:49 23:19:14 69° 257° (WSW) 23:23:41 145.980
CUBEBUG 2 01 Apr 23:19:30 23:22:37 20° 271° (W) 23:25:41 437.445
DUCHIFAT 1 01 Apr 23:19:32 23:22:02 16° 87° (E) 23:24:39 145.980
QB50P1 01 Apr 23:19:43 23:22:17 16° 87° (E) 23:25:00 145.935-145.965
AISAT 01 Apr 23:21:08 23:25:31 60° 258° (WSW) 23:29:56 437.250
UNISAT 6 01 Apr 23:22:55 23:26:58 31° 94° (E) 23:31:08 437.425
SWISSCUBE 01 Apr 23:27:41 23:28:42 11° 44° (NE) 23:29:54 437.505
HUMSAT D 01 Apr 23:29:33 23:33:21 36° 264° (W) 23:37:13 437.325/437.525
BEESAT 01 Apr 23:30:12 23:31:03 10° 44° (NE) 23:32:04 436.000
TIGRISAT 01 Apr 23:31:25 23:35:36 35° 95° (E) 23:39:53 435.000
50 SAT 01 Apr 23:35:00 23:38:44 42° 262° (W) 23:42:33 437.505
QB50P2 01 Apr 23:35:20 23:38:39 22° 91° (E) 23:42:01 145.880/145.840
HO-68 01 Apr 23:39:01 23:41:09 11° 286° (WNW) 23:42:50 435.675
UKube-1 01 Apr 23:43:19 23:46:43 22° 269° (W) 23:50:03 .
BUGSAT 1 01 Apr 23:43:54 23:46:44 18° 89° (E) 23:49:38 437.445
PCSat 01 Apr 23:51:01 23:56:13 46° 240° (WSW) 00:01:21 145.827
YUBILEINY 01 Apr 23:57:05 00:05:29 45° 63° (ENE) 00:13:53 435.215
DX 1 01 Apr 23:59:12 00:01:58 16° 273° (W) 00:04:35 434.975-435.025
ESTCUBE 1 02 Apr 00:02:40 00:07:05 47° 261° (W) 00:11:31 437.505/2401.250
POPSAT HIP 1 02 Apr 00:02:56 00:06:53 36° 97° (E) 00:10:50 437.405
ISS 02 Apr 00:03:03 00:05:59 31° 162° (SSE) 00:08:56 145.825
ANTELSAT 02 Apr 00:03:27 00:08:01 66° 102° (ESE) 00:12:41 437.575/2403.000
SO-50 02 Apr 00:08:22 00:12:40 29° 12° (NNE) 00:17:01 436.795
NANOSAT C BR1 02 Apr 00:11:58 00:16:02 43° 98° (E) 00:20:06 145.865
TISAT 1 02 Apr 00:12:21 00:16:30 60° 69° (ENE) 00:20:39 437.305
GONETS M04 02 Apr 00:13:28 00:17:31 13° 335° (NNW) 00:21:19
ITUPSAT 1 02 Apr 00:16:09 00:19:37 20° 54° (NE) 00:23:11 437.325
POLYITAN 1 02 Apr 00:19:27 00:23:37 52° 100° (E) 00:27:47 437.675
SPROUT 02 Apr 00:35:48 00:40:07 76° 257° (WSW) 00:44:25 437.525
CUBEBUG 1 02 Apr 00:41:53 00:45:32 24° 268° (W) 00:49:07 437.445
DUCHIFAT 1 02 Apr 00:54:14 00:58:29 80° 287° (WNW) 01:02:42 145.980
QB50P1 02 Apr 00:54:31 00:58:46 79° 287° (WNW) 01:03:00 145.935-145.965
VELOX 1 02 Apr 00:55:18 00:56:45 11° 278° (W) 00:58:00 145.980
UNISAT 6 02 Apr 00:59:34 01:03:56 45° 293° (WNW) 01:08:22 437.425
SWISSCUBE 02 Apr 01:00:59 01:05:31 43° 64° (ENE) 01:10:05 437.505
BEESAT 02 Apr 01:03:19 01:07:49 42° 64° (ENE) 01:12:22 436.000
TIGRISAT 02 Apr 01:08:10 01:12:26 40° 295° (WNW) 01:16:45 435.000
QB50P2 02 Apr 01:10:43 01:14:54 56° 291° (WNW) 01:19:04 145.880/145.840
BUGSAT 1 02 Apr 01:18:38 01:22:39 62° 290° (WNW) 01:26:38 437.445
RS-15 02 Apr 01:24:19 01:35:21 58° 19° (NNE) 01:46:54 29.354- 29.394
ISS 02 Apr 01:38:54 01:42:02 46° 182° (S) 01:45:10 145.825
POPSAT HIP 1 02 Apr 01:38:55 01:42:46 34° 296° (WNW) 01:46:35 437.405
ANTELSAT 02 Apr 01:40:49 01:44:30 24° 301° (WNW) 01:48:09 437.575/2403.000
Oscar 19 02 Apr 01:47:39 01:51:28 21° 88° (E) 01:55:24 437.125/150
NANOSAT C BR1 02 Apr 01:48:06 01:51:47 29° 298° (WNW) 01:55:25 145.865
SO-50 02 Apr 01:49:10 01:54:04 60° 35° (NE) 01:58:59 436.795
TISAT 1 02 Apr 01:49:29 01:52:42 20° 270° (W) 01:55:50 437.305
KKS-1 02 Apr 01:50:42 01:54:25 27° 60° (ENE) 01:58:12 437.445
ITUPSAT 1 02 Apr 01:52:10 01:57:01 86° 257° (WSW) 02:01:52 437.325
YUBILEINY 02 Apr 01:54:07 02:02:47 60° 268° (W) 02:11:19 435.215
POLYITAN 1 02 Apr 01:55:48 01:59:19 25° 300° (WNW) 02:02:48 437.675
STARS 02 Apr 02:13:59 02:17:45 29° 61° (ENE) 02:21:34 437.465
SPROUT 02 Apr 02:15:21 02:17:03 12° 277° (W) 02:18:33 437.525
GONETS M04 02 Apr 02:18:46 02:19:42 10° 9° (N) 02:20:45
DUCHIFAT 1 02 Apr 02:31:16 02:33:43 15° 307° (NW) 02:36:04 145.980
QB50P1 02 Apr 02:31:37 02:34:03 15° 307° (NW) 02:36:21 145.935-145.965
Gurwin Techsat 1B 02 Apr 02:32:34 02:35:41 16° 83° (E) 02:38:59 435.225
UNISAT 6 02 Apr 02:38:49 02:39:47 10° 313° (NW) 02:40:36 437.425
SWISSCUBE 02 Apr 02:39:04 02:43:29 35° 264° (W) 02:47:55 437.505
BEESAT 02 Apr 02:41:20 02:45:46 36° 264° (W) 02:50:12 436.000
QB50P2 02 Apr 02:48:33 02:50:01 11° 310° (NW) 02:51:20 145.880/145.840
BUGSAT 1 02 Apr 02:55:58 02:57:25 12° 309° (NW) 02:58:44 437.445
ITAMSAT 1 02 Apr 03:00:57 03:05:25 29° 92° (E) 03:09:54 435.822/435.867
AUBIESAT-1 02 Apr 03:10:44 03:12:46 13° 39° (NE) 03:14:58 437.475
ISS 02 Apr 03:15:13 03:18:04 28° 201° (SSW) 03:20:53 145.825
O/OREOS (USA 219) 02 Apr 03:15:39 03:18:14 15° 101° (E) 03:21:00 437.305
Oscar 19 02 Apr 03:26:17 03:31:29 79° 289° (WNW) 03:36:41 437.125/150
KKS-1 02 Apr 03:26:31 03:30:52 52° 259° (W) 03:35:14 437.445
SO-50 02 Apr 03:29:56 03:34:31 38° 236° (SW) 03:39:04 436.795
ITUPSAT 1 02 Apr 03:32:44 03:35:43 16° 275° (W) 03:38:33 437.325
M-CUBED/EXP-1 PRIME 02 Apr 03:36:58 03:40:06 19° 46° (NE) 03:43:27 437.505
RS-15 02 Apr 03:37:19 03:48:40 81° 228° (SW) 04:00:33 29.354- 29.394
AO-7 02 Apr 03:48:30 03:53:40 18° 81° (E) 03:59:10 29.400- 29.500
HORYU 2 02 Apr 03:48:50 03:51:38 16° 87° (E) 03:54:34 437.375
STARS 02 Apr 03:49:51 03:54:05 46° 261° (W) 03:58:20 437.465
MOZHAYETS 4 02 Apr 03:51:54 03:55:54 30° 61° (ENE) 03:59:57
YUBILEINY 02 Apr 03:52:35 03:57:51 17° 291° (WNW) 04:02:43 435.215
Gurwin Techsat 1B 02 Apr 04:11:17 04:16:39 79° 105° (ESE) 04:21:59 435.225
GONETS M04 02 Apr 04:14:50 04:21:11 22° 42° (NE) 04:27:47
AIST 1 02 Apr 04:20:54 04:25:11 52° 95° (E) 04:29:28
JAS-2 02 Apr 04:26:56 04:33:32 30° 85° (E) 04:39:51 435.910
ITAMSAT 1 02 Apr 04:40:11 04:45:18 58° 293° (WNW) 04:50:22 435.822/435.867
AUBIESAT-1 02 Apr 04:42:25 04:46:35 47° 60° (ENE) 04:51:06 437.475
O/OREOS (USA 219) 02 Apr 04:52:25 04:57:02 86° 120° (ESE) 05:01:41 437.305
STRAND 1 02 Apr 04:54:48 04:57:07 13° 45° (NE) 04:59:35 437.568
PRISM 02 Apr 05:04:01 05:06:10 14° 52° (NE) 05:08:26 437.425
Oscar 19 02 Apr 05:06:34 05:10:11 19° 309° (NW) 05:13:41 437.125/150
M-CUBED/EXP-1 PRIME 02 Apr 05:10:01 05:14:21 83° 66° (ENE) 05:19:02 437.505
HORYU 2 02 Apr 05:24:25 05:28:57 84° 287° (WNW) 05:33:29 437.375
MOZHAYETS 4 02 Apr 05:28:26 05:32:57 50° 261° (W) 05:37:31
AO-7 02 Apr 05:40:06 05:48:23 65° 105° (ESE) 05:56:38 29.400- 29.500
CUBESAT XI-V 02 Apr 05:49:19 05:53:36 36° 63° (ENE) 05:57:53 437.345
RS-15 02 Apr 05:50:13 05:59:45 31° 253° (WSW) 06:09:18 29.354- 29.394
Gurwin Techsat 1B 02 Apr 05:51:54 05:56:11 25° 305° (NW) 06:00:21 435.225
AIST 1 02 Apr 05:59:29 06:03:09 25° 297° (WNW) 06:06:46
GONETS M04 02 Apr 06:11:34 06:20:20 62° 70° (ENE) 06:29:06
JAS-2 02 Apr 06:11:36 06:19:30 83° 289° (WNW) 06:26:48 435.910
DANDE 02 Apr 06:12:35 06:14:12 12° 58° (ENE) 06:16:08 436.750
AUBIESAT-1 02 Apr 06:17:43 06:21:36 31° 261° (W) 06:25:43 437.475
ITAMSAT 1 02 Apr 06:20:59 06:23:54 15° 314° (NW) 06:26:39 435.822/435.867
STRAND 1 02 Apr 06:30:22 06:35:19 51° 66° (ENE) 06:40:19 437.568
O/OREOS (USA 219) 02 Apr 06:33:19 06:37:05 24° 323° (NW) 06:40:47 437.305
PRISM 02 Apr 06:36:47 06:40:59 73° 72° (ENE) 06:45:14 437.425
CUSAT 1 02 Apr 06:40:49 06:44:19 27° 66° (ENE) 06:48:46 437.405
M-CUBED/EXP-1 PRIME 02 Apr 06:46:58 06:49:56 17° 268° (W) 06:52:55 437.505
HORYU 2 02 Apr 07:02:04 07:05:02 17° 307° (NW) 07:07:54 437.375
CUBESAT XI-V 02 Apr 07:26:33 07:31:01 40° 263° (W) 07:35:28 437.345
CUTE-I 02 Apr 07:29:28 07:34:38 49° 99° (E) 07:39:48 437.470
Cubesat XI-IV 02 Apr 07:30:49 07:36:02 50° 99° (E) 07:41:13 437.490
AO-7 02 Apr 07:33:14 07:41:01 45° 308° (NW) 07:48:42 29.400- 29.500
DANDE 02 Apr 07:54:04 07:57:54 78° 75° (ENE) 08:03:06 436.750
JAS-2 02 Apr 07:57:08 08:03:37 29° 312° (NW) 08:09:42 435.910
GONETS M04 02 Apr 08:08:49 08:16:59 43° 274° (W) 08:25:03
STRAND 1 02 Apr 08:10:09 08:14:47 32° 266° (W) 08:19:23 437.568
PRISM 02 Apr 08:14:07 08:17:00 17° 272° (W) 08:19:48 437.425
O/OREOS (USA 219) 02 Apr 08:17:03 08:18:13 11° 347° (NNW) 08:19:20 437.305
CUSAT 1 02 Apr 08:23:10 08:27:12 49° 260° (W) 08:32:33 437.405
DOVE 4 02 Apr 08:53:56 08:55:30 12° 83° (E) 08:57:19 437.250
UNISAT 6 02 Apr 08:55:23 08:57:13 13° 50° (NE) 08:59:10 437.425
BRITE-PL 02 Apr 08:56:24 08:59:45 23° 91° (E) 09:03:16 437.365/2234.400
CANX-2 02 Apr 08:57:29 09:00:08 16° 86° (E) 09:02:55 2200.000
TIGRISAT 02 Apr 09:03:18 09:05:29 14° 51° (NE) 09:07:48 435.000
HO-68 02 Apr 09:03:56 09:09:46 26° 88° (E) 09:15:43 435.675
CUTE-I 02 Apr 09:09:47 09:14:39 36° 300° (WNW) 09:19:27 437.470
CUTE 1.7 + AOD 2 02 Apr 09:10:32 09:13:37 19° 88° (E) 09:16:46 437.475
Cubesat XI-IV 02 Apr 09:11:11 09:16:03 36° 300° (WNW) 09:20:50 437.490
AAUSAT CUBESAT 2 02 Apr 09:20:08 09:22:33 15° 85° (E) 09:25:07 437.432
GOMX 1 02 Apr 09:22:40 09:26:20 28° 93° (E) 09:30:12 467.674
AO-7 02 Apr 09:26:24 09:31:58 20° 333° (NNW) 09:37:24 29.400- 29.500
POPSAT HIP 1 02 Apr 09:29:33 09:31:33 13° 52° (NE) 09:33:39 437.405
SEEDS 02 Apr 09:33:31 09:37:06 26° 92° (E) 09:40:43 437.485
ANTELSAT 02 Apr 09:34:11 09:37:35 23° 58° (ENE) 09:41:06 437.575/2403.000
NANOSAT C BR1 02 Apr 09:37:55 09:40:21 15° 54° (NE) 09:42:52 145.865
DANDE 02 Apr 09:38:29 09:41:03 15° 268° (W) 09:43:50 436.750
CINEMA 3 02 Apr 09:40:20 09:43:22 18° 88° (E) 09:46:35 145.822/145.860
JAS-2 02 Apr 09:43:14 09:46:18 13° 336° (NNW) 09:49:09 435.910
POLYITAN 1 02 Apr 09:45:26 09:48:12 18° 56° (NE) 09:51:04 437.675
COMPASS 1 02 Apr 09:49:43 09:53:29 30° 94° (E) 09:57:16 437.405
O/OREOS (USA 219) 02 Apr 09:58:40 09:59:48 11° 13° (NNE) 10:00:59 437.305
GONETS M04 02 Apr 10:09:11 10:11:29 11° 298° (WNW) 10:13:16
DELFI C3 02 Apr 10:09:56 10:12:43 18° 88° (E) 10:15:34 145.870
AIST 2 02 Apr 10:13:13 10:15:10 13° 113° (ESE) 10:17:16 435.215
BEESAT 2 02 Apr 10:13:49 10:17:21 28° 122° (ESE) 10:20:57 435.950
Oscar 11 02 Apr 10:14:45 10:18:22 25° 91° (E) 10:22:00 145.826/435.025
DUCHIFAT 1 02 Apr 10:18:33 10:22:11 29° 62° (ENE) 10:25:52 145.980
QB50P1 02 Apr 10:19:03 10:22:44 30° 63° (ENE) 10:26:27 145.935-145.965
UNISAT 6 02 Apr 10:28:57 10:33:12 61° 70° (ENE) 10:37:34 437.425
DOVE 4 02 Apr 10:29:47 10:34:06 76° 104° (ESE) 10:38:39 437.250
CANX-2 02 Apr 10:32:20 10:36:42 81° 286° (WNW) 10:41:01 2200.000
FUNcube-1 02 Apr 10:33:21 10:36:45 22° 90° (E) 10:40:17 145.935
BRITE-PL 02 Apr 10:34:33 10:38:38 52° 291° (WNW) 10:42:52 437.365/2234.400
QB50P2 02 Apr 10:35:00 10:38:57 41° 66° (ENE) 10:42:58 145.880/145.840
TIGRISAT 02 Apr 10:37:14 10:41:31 70° 70° (ENE) 10:45:54 435.000
BUGSAT 1 02 Apr 10:40:35 10:44:18 34° 65° (ENE) 10:48:02 437.445
BEESAT 3 02 Apr 10:45:24 10:49:25 54° 129° (SE) 10:53:29 437.485
CUTE 1.7 + AOD 2 02 Apr 10:45:41 10:50:00 67° 289° (WNW) 10:54:18 437.475
ZACube-1 02 Apr 10:47:34 10:51:24 29° 93° (E) 10:55:21 437.345
UWE-3 02 Apr 10:48:00 10:52:03 34° 95° (E) 10:56:12 435.000/436.395/437.385
HO-68 02 Apr 10:51:12 10:58:28 87° 291° (WNW) 11:05:41 435.675
CUTE-I 02 Apr 10:52:26 10:53:25 10° 321° (NW) 10:54:14 437.470
Cubesat XI-IV 02 Apr 10:54:05 10:54:49 10° 322° (NW) 10:55:22 437.490
AAUSAT CUBESAT 2 02 Apr 10:54:34 10:58:50 83° 286° (WNW) 11:03:05 437.432
VELOX 1 02 Apr 10:59:28 11:01:50 14° 85° (E) 11:04:20 145.980
GOMX 1 02 Apr 11:00:38 11:04:42 44° 292° (WNW) 11:08:56 467.674
CUBEBUG 2 02 Apr 11:01:28 11:05:48 52° 100° (E) 11:10:16 437.445
POPSAT HIP 1 02 Apr 11:02:34 11:06:45 70° 71° (ENE) 11:10:58 437.405
AISAT 02 Apr 11:05:39 11:08:27 17° 87° (E) 11:11:22 437.250
50 SAT 02 Apr 11:06:16 11:08:48 16° 87° (E) 11:11:26 437.505
HUMSAT D 02 Apr 11:06:26 11:09:53 24° 91° (E) 11:13:25 437.325/437.525
SEEDS 02 Apr 11:09:00 11:13:09 48° 292° (WNW) 11:17:17 437.485
ANTELSAT 02 Apr 11:09:47 11:14:04 61° 258° (WSW) 11:18:28 437.575/2403.000
NANOSAT C BR1 02 Apr 11:11:24 11:15:37 83° 74° (ENE) 11:19:52 145.865
CINEMA 3 02 Apr 11:16:42 11:21:06 74° 288° (WNW) 11:25:41 145.822/145.860
AO-7 02 Apr 11:17:47 11:21:43 14° 2° (N) 11:25:40 29.400- 29.500
POLYITAN 1 02 Apr 11:19:25 11:23:39 83° 255° (WSW) 11:27:54 437.675
UKube-1 02 Apr 11:22:29 11:26:35 39° 98° (E) 11:30:39 .
COMPASS 1 02 Apr 11:25:17 11:29:19 41° 294° (WNW) 11:33:19 437.405
Oscar 19 02 Apr 11:35:10 11:37:52 15° 47° (NE) 11:40:43 437.125/150
O/OREOS (USA 219) 02 Apr 11:37:12 11:40:56 24° 38° (NE) 11:44:40 437.305
DX 1 02 Apr 11:38:07 11:42:25 56° 102° (ESE) 11:46:41 434.975-435.025
DELFI C3 02 Apr 11:44:15 11:48:22 67° 289° (WNW) 11:52:26 145.870
ESTCUBE 1 02 Apr 11:48:29 11:52:05 23° 90° (E) 11:55:43 437.505/2401.250
AIST 2 02 Apr 11:48:48 11:53:04 67° 132° (SE) 11:57:22 435.215
Oscar 11 02 Apr 11:50:33 11:54:49 52° 292° (WNW) 11:59:04 145.826/435.025
BEESAT 2 02 Apr 11:51:07 11:55:16 62° 322° (NW) 11:59:26 435.950
DUCHIFAT 1 02 Apr 11:53:55 11:57:55 42° 262° (W) 12:01:57 145.980
QB50P1 02 Apr 11:54:32 11:58:32 41° 262° (W) 12:02:33 145.935-145.965
UNISAT 6 02 Apr 12:07:05 12:10:27 21° 271° (W) 12:13:46 437.425
DOVE 4 02 Apr 12:08:24 12:11:31 19° 302° (WNW) 12:14:39 437.250
FUNcube-1 02 Apr 12:09:09 12:13:28 60° 290° (WNW) 12:17:53 145.935
CANX-2 02 Apr 12:09:26 12:12:01 15° 306° (NW) 12:14:31 2200.000
QB50P2 02 Apr 12:11:16 12:15:00 29° 266° (W) 12:18:44 145.880/145.840
TIGRISAT 02 Apr 12:15:45 12:18:50 18° 273° (W) 12:21:51 435.000
BRITE-PL 02 Apr 12:16:02 12:16:24 10° 311° (NW) 12:16:36 437.365/2234.400
BUGSAT 1 02 Apr 12:16:02 12:19:49 34° 264° (W) 12:23:33 437.445
SPROUT 02 Apr 12:17:00 12:18:46 12° 83° (E) 12:20:42 437.525
CUBEBUG 1 02 Apr 12:22:38 12:26:43 38° 97° (E) 12:30:47 437.445
CUTE 1.7 + AOD 2 02 Apr 12:23:05 12:25:13 13° 308° (NW) 12:27:14 437.475
BEESAT 3 02 Apr 12:23:44 12:27:38 38° 331° (NNW) 12:31:34 437.485
ZACube-1 02 Apr 12:23:46 12:27:58 45° 292° (WNW) 12:32:13 437.345
Gurwin Techsat 1B 02 Apr 12:24:05 12:26:22 13° 44° (NE) 12:28:48 435.225
UWE-3 02 Apr 12:24:33 12:28:39 38° 294° (WNW) 12:32:50 435.000/436.395/437.385
AAUSAT CUBESAT 2 02 Apr 12:31:20 12:33:53 16° 306° (NW) 12:36:21 437.432
VELOX 1 02 Apr 12:34:42 12:39:09 89° 106° (ESE) 12:43:33 145.980
CUBEBUG 2 02 Apr 12:38:35 12:42:19 27° 299° (WNW) 12:46:07 437.445
HO-68 02 Apr 12:39:29 12:45:28 29° 313° (NW) 12:51:21 435.675
50 SAT 02 Apr 12:40:10 12:44:13 72° 288° (WNW) 12:48:15 437.505
POPSAT HIP 1 02 Apr 12:40:13 12:43:09 18° 272° (W) 12:46:00 437.405
AISAT 02 Apr 12:41:14 12:45:40 80° 288° (WNW) 12:50:05 437.250
HUMSAT D 02 Apr 12:41:47 12:45:56 52° 291° (WNW) 12:50:07 437.325/437.525
SEEDS 02 Apr 12:47:26 12:48:04 10° 312° (NW) 12:48:34 437.485
ITAMSAT 1 02 Apr 12:48:35 12:52:16 20° 52° (NE) 12:56:03 435.822/435.867
NANOSAT C BR1 02 Apr 12:49:36 12:52:07 15° 274° (W) 12:54:31 145.865
CINEMA 3 02 Apr 12:55:13 12:57:43 15° 306° (NW) 13:00:09 145.822/145.860
POLYITAN 1 02 Apr 12:58:25 13:00:22 13° 276° (W) 13:02:09 437.675
UKube-1 02 Apr 12:58:46 13:02:41 33° 298° (WNW) 13:06:33 .
AO-7 02 Apr 13:05:51 13:11:33 22° 29° (NNE) 13:17:23 29.400- 29.500
JAS-2 02 Apr 13:06:17 13:09:45 14° 28° (NNE) 13:13:27 435.910
YUBILEINY 02 Apr 13:07:50 13:15:37 38° 83° (E) 13:23:33 435.215
Oscar 19 02 Apr 13:11:18 13:16:19 58° 67° (ENE) 13:21:24 437.125/150
DX 1 02 Apr 13:14:51 13:18:26 25° 301° (WNW) 13:21:55 434.975-435.025
O/OREOS (USA 219) 02 Apr 13:16:20 13:20:56 82° 241° (WSW) 13:25:28 437.305
DELFI C3 02 Apr 13:20:59 13:22:50 13° 308° (NW) 13:24:35 145.870
ESTCUBE 1 02 Apr 13:24:53 13:29:21 59° 291° (WNW) 13:33:47 437.505/2401.250
TISAT 1 02 Apr 13:25:37 13:29:36 40° 98° (E) 13:33:35 437.305
AIST 2 02 Apr 13:27:57 13:31:58 35° 334° (NNW) 13:35:58 435.215
Oscar 11 02 Apr 13:28:49 13:30:08 11° 311° (NW) 13:31:19 145.826/435.025
BEESAT 2 02 Apr 13:30:35 13:34:06 25° 345° (NNW) 13:37:36 435.950
ITUPSAT 1 02 Apr 13:46:45 13:49:32 16° 85° (E) 13:52:29 437.325
FUNcube-1 02 Apr 13:47:10 13:49:04 12° 309° (NW) 13:50:51 145.935
SPROUT 02 Apr 13:51:21 13:55:40 80° 104° (ESE) 13:59:58 437.525
CUBEBUG 1 02 Apr 13:59:08 14:03:04 33° 297° (WNW) 14:06:56 437.445
Gurwin Techsat 1B 02 Apr 14:00:11 14:05:15 48° 65° (ENE) 14:10:23 435.225
BEESAT 3 02 Apr 14:03:23 14:06:39 22° 354° (N) 14:09:54 437.485
VELOX 1 02 Apr 14:12:12 14:15:11 18° 306° (NW) 14:18:05 145.980
50 SAT 02 Apr 14:16:32 14:18:29 13° 307° (NW) 14:20:19 437.505
AISAT 02 Apr 14:18:58 14:21:40 16° 307° (NW) 14:24:16 437.250
HUMSAT D 02 Apr 14:19:47 14:20:53 11° 310° (NW) 14:21:50 437.325/437.525
AIST 1 02 Apr 14:20:46 14:24:36 30° 66° (ENE) 14:28:26
ITAMSAT 1 02 Apr 14:25:55 14:31:09 84° 72° (ENE) 14:36:25 435.822/435.867
HO-68 02 Apr 14:28:16 14:31:02 12° 338° (NNW) 14:33:39 435.675
SWISSCUBE 02 Apr 14:31:42 14:36:09 37° 96° (E) 14:40:36 437.505
BEESAT 02 Apr 14:33:54 14:38:20 36° 96° (E) 14:42:46 436.000
PCSat 02 Apr 14:39:31 14:44:26 37° 118° (ESE) 14:49:26 145.827
JAS-2 02 Apr 14:46:10 14:52:36 33° 52° (NE) 14:59:25 435.910
Oscar 19 02 Apr 14:51:38 14:56:03 28° 268° (W) 15:00:26 437.125/150
HORYU 2 02 Apr 14:53:39 14:57:41 35° 63° (ENE) 15:01:48 437.375
AO-7 02 Apr 14:54:49 15:02:40 50° 54° (NE) 15:10:35 29.400- 29.500
O/OREOS (USA 219) 02 Apr 14:57:10 14:59:42 14° 260° (W) 15:02:03 437.305
TISAT 1 02 Apr 15:01:36 15:05:20 31° 297° (WNW) 15:09:02 437.305
YUBILEINY 02 Apr 15:03:11 15:12:00 70° 287° (WNW) 15:20:53 435.215
ESTCUBE 1 02 Apr 15:03:20 15:05:25 13° 311° (NW) 15:07:22 437.505/2401.250
AIST 2 02 Apr 15:08:10 15:11:36 22° 357° (N) 15:15:00 435.215
BEESAT 2 02 Apr 15:10:04 15:13:24 22° 8° (N) 15:16:44 435.950
KKS-1 02 Apr 15:10:59 15:14:10 19° 89° (E) 15:17:27 437.445
ITUPSAT 1 02 Apr 15:23:24 15:28:16 86° 110° (ESE) 15:33:04 437.325
SPROUT 02 Apr 15:28:18 15:31:18 18° 304° (NW) 15:34:13 437.525
STARS 02 Apr 15:32:49 15:36:06 20° 90° (E) 15:39:27 437.465
Gurwin Techsat 1B 02 Apr 15:40:31 15:45:26 36° 265° (W) 15:50:20 435.225
BEESAT 3 02 Apr 15:42:18 15:45:50 26° 17° (NNE) 15:49:22 437.485
AIST 1 02 Apr 15:58:20 16:02:24 39° 267° (W) 16:06:23
ITAMSAT 1 02 Apr 16:07:35 16:11:24 20° 273° (W) 16:15:05 435.822/435.867
SWISSCUBE 02 Apr 16:09:35 16:14:06 40° 296° (WNW) 16:18:33 437.505
BEESAT 02 Apr 16:11:45 16:16:17 41° 296° (WNW) 16:20:45 436.000
PCSat 02 Apr 16:22:20 16:27:43 60° 319° (NW) 16:33:08 145.827
JAS-2 02 Apr 16:29:32 16:36:57 86° 256° (WSW) 16:44:54 435.910
HORYU 2 02 Apr 16:30:10 16:34:21 38° 263° (W) 16:38:33 437.375
KKS-1 02 Apr 16:46:52 16:51:19 70° 290° (WNW) 16:55:45 437.445
AO-7 02 Apr 16:47:19 16:55:30 58° 257° (WSW) 17:03:40 29.400- 29.500
AIST 2 02 Apr 16:47:30 16:51:18 29° 20° (NNE) 16:55:06 435.215
BEESAT 2 02 Apr 16:48:27 16:52:27 42° 31° (NNE) 16:56:26 435.950
ITUPSAT 1 02 Apr 17:02:06 17:05:39 20° 306° (NW) 17:09:05 437.325
YUBILEINY 02 Apr 17:03:53 17:10:50 24° 315° (NW) 17:17:38 435.215
STARS 02 Apr 17:08:38 17:13:01 65° 290° (WNW) 17:17:23 437.465
MOZHAYETS 4 02 Apr 17:16:34 17:20:24 25° 91° (E) 17:24:16
CUTE-I 02 Apr 17:19:34 17:24:17 33° 59° (ENE) 17:29:03 437.470
BEESAT 3 02 Apr 17:20:21 17:24:31 70° 40° (NE) 17:28:37 437.485
Cubesat XI-IV 02 Apr 17:21:01 17:25:47 34° 59° (ENE) 17:30:36 437.490
GONETS M04 02 Apr 17:31:10 17:35:01 14° 66° (ENE) 17:39:21
SWISSCUBE 02 Apr 17:50:18 17:50:51 10° 317° (NW) 17:51:15 437.505
BEESAT 02 Apr 17:52:12 17:53:02 10° 317° (NW) 17:53:43 436.000
AUBIESAT-1 02 Apr 17:52:39 17:55:12 14° 89° (E) 17:57:54 437.475
SO-50 02 Apr 17:52:58 17:55:18 14° 112° (ESE) 17:57:52 436.795
HO-68 02 Apr 17:56:23 18:00:30 17° 32° (NNE) 18:04:46 435.675
PCSat 02 Apr 18:07:33 18:12:10 27° 343° (NNW) 18:16:47 145.827
RS-15 02 Apr 18:11:45 18:20:17 29° 105° (ESE) 18:29:17 29.354- 29.394
JAS-2 02 Apr 18:17:08 18:23:11 26° 278° (W) 18:29:21 435.910
M-CUBED/EXP-1 PRIME 02 Apr 18:20:01 18:24:03 26° 97° (E) 18:28:05 437.505
KKS-1 02 Apr 18:24:49 18:27:16 14° 309° (NW) 18:29:36 437.445
AIST 2 02 Apr 18:26:06 18:30:26 86° 42° (NE) 18:34:41 435.215
BEESAT 2 02 Apr 18:26:40 18:30:41 46° 233° (SW) 18:34:38 435.950
BRITE-PL 02 Apr 18:39:33 18:40:49 11° 51° (NE) 18:42:12 437.365/2234.400
AO-7 02 Apr 18:45:44 18:50:28 15° 282° (WNW) 18:54:48 29.400- 29.500
STARS 02 Apr 18:46:32 18:48:44 13° 310° (NW) 18:50:49 437.465
MOZHAYETS 4 02 Apr 18:53:23 18:57:59 56° 292° (WNW) 19:02:32
BEESAT 3 02 Apr 18:58:53 19:02:14 24° 240° (WSW) 19:05:30 437.485
CUTE-I 02 Apr 18:58:55 19:04:11 56° 259° (W) 19:09:29 437.470
Cubesat XI-IV 02 Apr 19:00:28 19:05:44 54° 259° (W) 19:11:02 437.490
GOMX 1 02 Apr 19:03:13 19:04:50 12° 52° (NE) 19:06:34 467.674
YUBILEINY 02 Apr 19:10:08 19:12:08 11° 347° (NNW) 19:13:59 435.215
CUBESAT XI-V 02 Apr 19:15:53 19:20:03 32° 93° (E) 19:24:12 437.345
COMPASS 1 02 Apr 19:16:20 19:17:02 10° 49° (NE) 19:17:54 437.405
GONETS M04 02 Apr 19:21:35 19:29:53 53° 90° (E) 19:38:20
AUBIESAT-1 02 Apr 19:26:00 19:30:52 75° 110° (ESE) 19:35:38 437.475
SO-50 02 Apr 19:30:22 19:35:02 65° 131° (SE) 19:39:54 436.795
HO-68 02 Apr 19:39:57 19:46:36 44° 56° (NE) 19:53:21 435.675
PRISM 02 Apr 19:47:48 19:51:49 43° 99° (E) 19:55:48 437.425
PCSat 02 Apr 19:52:48 19:57:13 24° 9° (N) 20:01:38 145.827
M-CUBED/EXP-1 PRIME 02 Apr 19:54:28 19:59:18 64° 297° (WNW) 20:04:03 437.505
CANX-2 02 Apr 19:57:07 20:00:45 28° 62° (ENE) 20:04:29 2200.000
AIST 2 02 Apr 20:05:26 20:08:33 19° 243° (WSW) 20:11:34 435.215
DOVE 4 02 Apr 20:06:08 20:09:36 26° 62° (ENE) 20:13:07 437.250
CUTE 1.7 + AOD 2 02 Apr 20:10:08 20:13:57 33° 64° (ENE) 20:17:50 437.475
STRAND 1 02 Apr 20:12:31 20:17:32 52° 100° (E) 20:22:31 437.568
BRITE-PL 02 Apr 20:14:19 20:18:39 58° 70° (ENE) 20:22:49 437.365/2234.400
AAUSAT CUBESAT 2 02 Apr 20:17:38 20:21:08 26° 61° (ENE) 20:24:43 437.432
ZACube-1 02 Apr 20:18:19 20:19:08 11° 49° (NE) 20:20:07 437.345
UWE-3 02 Apr 20:18:54 20:20:36 12° 51° (NE) 20:22:26 435.000/436.395/437.385
RS-15 02 Apr 20:20:13 20:31:07 79° 131° (SE) 20:42:22 29.354- 29.394
CUBEBUG 2 02 Apr 20:32:13 20:34:57 18° 56° (NE) 20:37:48 437.445
MOZHAYETS 4 02 Apr 20:32:15 20:34:21 13° 311° (NW) 20:36:19
SEEDS 02 Apr 20:32:22 20:36:23 44° 67° (ENE) 20:40:29 437.485
GOMX 1 02 Apr 20:38:04 20:42:19 65° 71° (ENE) 20:46:28 467.674
CUTE-I 02 Apr 20:44:07 20:45:37 11° 281° (WNW) 20:46:49 437.470
Cubesat XI-IV 02 Apr 20:46:07 20:47:14 10° 282° (WNW) 20:48:02 437.490
COMPASS 1 02 Apr 20:47:48 20:51:52 51° 69° (ENE) 20:56:01 437.405
CINEMA 3 02 Apr 20:49:13 20:52:59 35° 65° (ENE) 20:56:50 145.822/145.860
UKube-1 02 Apr 20:50:15 20:52:54 16° 53° (NE) 20:55:39 .
CUBESAT XI-V 02 Apr 20:53:14 20:57:39 44° 294° (WNW) 21:02:02 437.345
AUBIESAT-1 02 Apr 21:01:18 21:05:16 26° 310° (NW) 21:09:09 437.475
DELFI C3 02 Apr 21:04:20 21:07:52 29° 63° (ENE) 21:11:28 145.870
DX 1 02 Apr 21:05:48 21:09:06 22° 57° (ENE) 21:12:27 434.975-435.025
YUBILEINY 02 Apr 21:11:05 21:14:21 12° 21° (NNE) 21:17:52 435.215
SO-50 02 Apr 21:11:19 21:15:53 41° 334° (NNW) 21:20:33 436.795
Oscar 11 02 Apr 21:16:13 21:20:22 46° 67° (ENE) 21:24:33 145.826/435.025
DANDE 02 Apr 21:16:40 21:19:07 36° 99° (E) 21:21:38 436.750
GONETS M04 02 Apr 21:18:27 21:26:55 51° 294° (WNW) 21:35:27
ESTCUBE 1 02 Apr 21:21:58 21:23:13 11° 47° (NE) 21:24:38 437.505/2401.250
PRISM 02 Apr 21:23:32 21:27:11 29° 299° (WNW) 21:30:46 437.425
HO-68 02 Apr 21:27:09 21:34:14 59° 258° (WSW) 21:41:22 435.675
M-CUBED/EXP-1 PRIME 02 Apr 21:30:16 21:33:24 17° 317° (NW) 21:36:26 437.505
CANX-2 02 Apr 21:32:27 21:36:33 45° 262° (W) 21:40:43 2200.000
FUNcube-1 02 Apr 21:36:07 21:39:59 39° 66° (ENE) 21:43:58 145.935
PCSat 02 Apr 21:36:43 21:41:56 44° 34° (NNE) 21:47:08 145.827
CUSAT 1 02 Apr 21:41:37 21:44:11 63° 286° (WNW) 21:46:58 437.405
